Orbital Elements at Epoch 2459200.5 (2020-Dec-17.0) TDB
Reference: JPL 19 (heliocentric ecliptic J2000)
Element | Value | Uncertainty (1-sigma) | Units |
e | .1944417360120596 | 3.8707e-08 | |
a | 2.40086120492301 | 7.619e-09 | au |
q | 1.934033584313775 | 9.1694e-08 | au |
i | 2.375816101862015 | 3.2455e-06 | deg |
node | 99.3714962422781 | 0.00011969 | deg |
peri | 231.5535095074348 | 0.00012023 | deg |
M | 60.82442896207871 | 1.1785e-05 | deg |
tp | 2458970.925024090609 (2020-May-01.42502409) | 4.41e-05 | TDB |
period | 1358.779568303182 3.72 | 6.468e-06 1.771e-08 | d yr |
n | .2649436364792864 | 1.2612e-09 | deg/d |
Q | 2.867688825532246 | 9.1005e-09 | au |
|
| | Orbit Determination Parameters
Additional Information
|